星链-6055 (STARLINK-6055 )

导读 | 星芒AI

STARLINK-6055 是 SpaceX Starlink 项目中的一颗低轨通信卫星,属于第 15 批组网发射的卫星之一。该卫星于 2021 年 10 月 28 日通过猎鹰 9 号火箭成功送入近地轨道,旨在为全球提供高速互联网服务。Starlink 卫星采用先进推进系统和激光通信技术,具备自动避障功能,以减少太空碰撞风险。STARLINK-6055 与其他卫星协同工作,提升 Starlink 网络的覆盖范围与连接稳定性,支持偏远地区的宽带接入。

基本信息
目录编号:
56467
目录名称:
STARLINK-6055
国际标识:
2023-064V
轨道中心:
EARTH
卫星名称:
星链-6055
卫星全名:
星链-6055 (STARLINK-6055 )
卫星状态:
在轨 (已飞行956 天)
发射日期:
2023-05-10 UTC
国别 :
美国 (US)
星等 :
--
轨道信息
数据来源 国际轨道数据 AOE轨道数据
星历时间 2025-12-21T16:42:38+0800
9小时前
查看轨道信息
2025-12-15T18:00:00+0800
6天前
查看轨道信息
半长轴 6950.218km 6950.176km
偏心率 0.0002849 0.0002665
轨道倾角 70.001° 70.001°
近地点辐角 273.196° 265.722°
升交点赤经 322.068° 337.058°
平近点角 86.887° 69.512°
近地点 570.1km 570.188km
远地点 574.062km 573.894km
周期 96.108分钟 96.107分钟
每日圈数 14.983219 14.983355
详细信息
固有亮度:
5
最大亮度:
2.5
卫星平台:
Starlink v1.5
覆盖范围:
全球
运营商:
太空探索技术公司
运营商所在国:
美国
制造商(研发单位):
太空探索技术公司
制造商所在国:
美国
使用方式:
暂无
卫星简介
星链(Starlink)计划是由太空探索技术公司(SpaceX)提出的一个巨型低轨卫星互联网星座项目,计划在2019年至2024年间在太空搭建由约1.2万颗卫星组成的“星链”网络,其中1584颗将部署在地球上空550千米处的近地轨道,并从2020年开始工作。该卫星仍在工作。
2D轨道图
3D轨道图
轨道高度分析图
轨道倾角分析图
轨道综合分析图
查看轨道综合分析图